#timestamp,LO_Frequency,Hit,StdDev 
1688202015.2,286046995.1,N
1688202035.1,286046992.8,Y
1688202036.0,286046992.8,P
1688202055.8,286046988.7,P
1688202075.7,286046993.3,N
1688202095.5,286046999.4,N
1688202115.3,286047000.9,N
1688202135.2,286046998.9,N
1688202155.0,286046994.6,N
1688202155.9,286046994.6,N
1688202175.7,286046990.2,N
1688202195.6,286046989.1,N
1688202215.4,286046987.7,Y
1688202235.3,286046988.6,P
1688202255.1,286046992.1,N
1688202256.0,286046992.1,P
1688202275.8,286046997.1,N
1688202295.7,286046999.0,N
1688202315.5,286046998.0,N
1688202335.4,286046992.5,N
1688202355.2,286046992.2,N
1688202375.0,286046999.6,N
1688202375.9,286046999.6,N
1688202395.8,286046997.5,N
1688202415.6,286046998.4,N
1688202435.4,286046996.5,N
1688202455.3,286046995.4,N
1688202475.1,286046992.8,N
1688202495.9,286046990.2,Y
1688202515.7,286046993.6,P
1688202535.5,286046999.0,N
1688202555.4,286046998.3,N
1688202575.2,286046996.8,N
1688202595.0,286046995.5,N
1688202595.9,286046995.5,N
1688202615.8,286046997.8,N
1688202635.6,286046996.7,N
1688202655.5,286046997.9,N
1688202675.3,286046995.8,N
1688202695.1,286046991.9,Y
1688202715.9,286046995.0,P
1688202735.7,286046995.0,P
1688202755.5,286046994.2,P
1688202775.4,286046988.6,Y
1688202795.2,286046992.4,P
1688202815.1,286046997.9,N
1688202816.0,286046997.9,N
1688202835.8,286046997.6,N
1688202855.6,286046999.1,N
1688202875.5,286046996.2,N
1688202895.3,286046996.8,N
1688202915.2,286046998.9,N
1688202935.9,286046997.1,N
1688202955.7,286046992.5,Y
1688202975.6,286046994.1,P
1688202995.4,286046987.8,P
1688203015.2,286046989.5,N
1688203035.1,286046990.9,N
1688203036.0,286046990.9,N
1688203055.8,286046990.8,Y
1688203075.7,286046993.9,P
1688203095.5,286046992.8,P
1688203115.3,286046992.2,P
1688203135.2,286046994.1,Y
1688203155.0,286046997.8,P
1688203155.9,286046997.8,N
1688203175.8,286046995.4,N
1688203195.6,286046995.1,N
1688203215.4,286046999.4,N
1688203235.3,286046996.2,N
1688203255.1,286046989.0,Y
1688203275.8,286046997.4,P
1688203295.7,286046994.1,P
1688203315.5,286046992.0,P
1688203335.4,286046991.5,Y
1688203355.2,286047000.3,P
1688203375.0,286047001.8,N
1688203375.9,286047001.8,N
1688203395.8,286047005.5,N
1688203415.6,286047004.2,N
1688203435.5,286047000.8,N
1688203455.3,286047001.2,N
1688203475.1,286046996.5,N
1688203495.9,286046995.6,N
1688203515.7,286046997.2,N
1688203535.5,286046996.2,N
1688203555.4,286046992.6,N
1688203575.2,286046995.7,N
1688203595.1,286047001.3,N
1688203596.0,286047001.3,N
1688203615.8,286047006.1,N
1688203635.6,286047009.9,N
1688203655.5,286047008.1,N
1688203675.3,286047005.1,N
1688203695.1,286047005.8,N
1688203715.9,286047000.3,N
1688203735.7,286047000.6,N
1688203755.6,286047005.4,N
1688203775.4,286046993.0,N
1688203795.2,286046992.9,N
1688203815.1,286047001.2,N
1688203816.0,286047001.2,N
1688203835.8,286047000.3,N
1688203855.7,286047005.1,N
1688203875.5,286047004.6,N
1688203895.3,286047002.1,N
1688203915.2,286046996.7,N
1688203935.9,286046999.8,N
1688203955.7,286046996.5,N
1688203975.6,286046994.8,N
1688203995.4,286046993.7,N
1688204015.3,286046996.9,N
1688204035.1,286046999.4,N
1688204036.0,286046999.4,N
1688204055.8,286047003.7,N
1688204075.7,286047002.1,N
1688204095.5,286047001.1,N
1688204115.3,286046998.8,N
1688204135.2,286047000.0,N
1688204155.0,286047001.3,N
1688204155.9,286047001.3,N
1688204175.8,286046999.0,N
1688204195.6,286046997.8,N
1688204215.4,286046996.2,N
1688204235.3,286046992.7,N
1688204255.1,286046988.5,Y
1688204275.8,286046996.0,P
1688204295.7,286046991.7,P
1688204315.5,286046989.7,P
1688204335.4,286046993.5,N
1688204355.2,286046995.7,N
1688204375.0,286046997.1,N
1688204375.9,286046997.1,N
1688204395.8,286046997.5,N
1688204415.6,286046991.6,N
1688204435.5,286046991.1,Y
1688204455.3,286046996.7,P
1688204475.1,286046996.6,P
1688204495.9,286047000.6,N
1688204515.7,286046998.4,N
1688204535.5,286046997.9,N
1688204555.4,286046994.9,N
1688204575.2,286046993.3,Y
1688204595.1,286046991.1,P
1688204596.0,286046991.1,N
1688204615.8,286046984.4,P
1688204635.6,286046987.6,N
1688204655.5,286046985.6,Y
1688204675.3,286046998.0,P
1688204695.1,286046993.6,N
1688204715.9,286046994.2,N
1688204735.7,286046997.7,N
1688204755.6,286046994.9,N
1688204775.4,286046995.1,N
1688204795.2,286046991.3,Y
1688204815.1,286046996.2,P
1688204816.0,286046996.2,P
1688204835.8,286046994.1,P
1688204855.7,286046993.4,Y
1688204875.5,286046996.9,P
1688204895.3,286047000.9,N
1688204915.2,286047000.9,N
1688204935.0,286047002.1,N
1688204935.9,286047002.1,N
1688204955.8,286047002.2,N
1688204975.6,286046998.5,N
1688204995.4,286047002.4,N
1688205015.3,286047002.9,N
1688205035.1,286047000.0,N
1688205055.8,286046998.6,N
1688205075.7,286046996.6,N
1688205095.5,286046999.6,N
1688205115.4,286046995.0,N
1688205135.2,286046993.7,N
1688205155.0,286046991.9,N
1688205155.9,286046991.9,N
1688205175.8,286046986.1,Y
1688205195.6,286046987.9,P
1688205215.5,286046988.2,N
1688205235.3,286046988.8,N
1688205255.1,286046993.2,N
1688205275.9,286046990.2,N
1688205295.7,286046990.9,N
1688205315.5,286046986.3,Y
1688205335.4,286046994.2,P
1688205355.2,286046993.9,P
1688205375.1,286046991.3,P
1688205376.0,286046991.3,Y
1688205395.8,286046999.9,P
1688205415.6,286047000.3,N
1688205435.5,286047003.0,N
1688205455.3,286047005.9,N
1688205475.2,286047005.7,N
1688205495.9,286047002.6,N
1688205515.7,286046997.8,N
1688205535.6,286046996.8,N
1688205555.4,286046993.8,N
1688205575.2,286046996.0,N
1688205595.1,286046997.0,N
1688205596.0,286046997.0,N
